Fort Myers, FL

9:54 AM EST on February 25, 2017 (GMT -0500)
Page

Weather History for KFMY - October, 2014

Change the Weather History Date:

Wednesday, October 15, 2014

  Actual Average Record
Temperature  
Mean Temperature 80 °F 78 °F  
Max Temperature 87 °F 87 °F 92 °F (1952)
Min Temperature 72 °F 69 °F 53 °F (1977)
Degree Days  
Heating Degree Days 0 0  
Month to date heating degree days 0 0  
Since 1 July heating degree days 0 0  
Cooling Degree Days 15 13  
Month to date cooling degree days 221 219  
Year to date cooling degree days 3632 3465  
Growing Degree Days 30 (Base 50)    
Moisture  
Dew Point 72 °F    
Average Humidity 85    
Maximum Humidity 100    
Minimum Humidity 63    
Precipitation  
Precipitation 0.43 in 0.08 in 2.62 in (1952)
Month to date precipitation 1.24 1.69  
Year to date precipitation 37.72 51.07  
Sea Level Pressure  
Sea Level Pressure 29.94 in    
Wind  
Wind Speed 7 mph (West)    
Max Wind Speed 15 mph    
Max Gust Speed 18 mph    
Visibility 9 miles    
Events Rain , Thunderstorm    
T = Trace of Precipitation, MM = Missing Value Source: NWS Daily Summary

Daily Weather History Graph

Daily Weather History Graph

Search for Another Location

Airport or City:

Trip Planner

Search our weather history database for the weather conditions in past years. The results will help you decide how hot, cold, wet, or windy it might be!

Date:

Astronomy

Oct. 15, 2014 Rise Set
Actual Time 7:26 AM EDT 6:59 PM EDT
Civil Twilight 7:03 AM EDT 7:22 PM EDT
Nautical Twilight 6:36 AM EDT 7:49 PM EDT
Astronomical Twilight 6:09 AM EDT 8:16 PM EDT
Moon 12:19 AM EDT (10/15) 1:54 PM EDT (10/15)
Length of Visible Light 12h 19m
Length of Day
11h 32m
Waning Gibbous, 51% of the Moon is Illuminated
Oct 15
Waning Gibbous
Oct 15
Last Quarter
Oct 23
New
Oct 30
First Quarter
Nov 6
Full

Hourly Weather History & Observations

Time (EDT) Temp. Heat Index Dew Point Humidity Pressure Visibility Wind Dir Wind Speed Gust Speed Precip Events Conditions
12:53 AM 73.9 °F - 73.0 °F 97% 29.97 in 10.0 mi SE 4.6 mph - N/A   Clear
1:53 AM 73.9 °F - 73.0 °F 97% 29.97 in 10.0 mi SSE 3.5 mph - N/A   Partly Cloudy
2:53 AM 73.9 °F - 73.0 °F 97% 29.95 in 10.0 mi SE 4.6 mph - N/A   Mostly Cloudy
3:37 AM 73.9 °F - 73.0 °F 97% 29.92 in 10.0 mi Calm Calm - N/A   Partly Cloudy
3:53 AM 73.9 °F - 73.0 °F 97% 29.93 in 10.0 mi Calm Calm - N/A   Clear
4:10 AM 73.9 °F - 73.0 °F 97% 29.93 in 10.0 mi Calm Calm - 0.00 in Rain , Thunderstorm Light Rain
4:25 AM 75.0 °F - 73.0 °F 94% 29.92 in 10.0 mi Calm Calm - 0.01 in Rain Light Rain
4:46 AM 75.0 °F - 73.0 °F 94% 29.93 in 10.0 mi North - - 0.01 in   Mostly Cloudy
4:53 AM 73.9 °F - 72.0 °F 93% 29.94 in 10.0 mi WNW 8.1 mph - 0.01 in   Overcast
5:00 AM 73.9 °F - 72.0 °F 93% 29.93 in 7.0 mi WNW 5.8 mph - 0.00 in Rain Light Rain
5:07 AM 73.0 °F - 72.0 °F 96% 29.94 in 1.8 mi NNW 4.6 mph - 0.06 in Rain Heavy Rain
5:19 AM 73.0 °F - 72.0 °F 96% 29.94 in 3.0 mi SW 6.9 mph - 0.20 in Rain Light Rain
5:31 AM 73.0 °F - 73.0 °F 100% 29.95 in 1.8 mi South 6.9 mph - 0.29 in Rain Heavy Rain
5:37 AM 73.0 °F - 72.0 °F 96% 29.94 in 1.8 mi South 6.9 mph - 0.34 in Rain , Thunderstorm Rain
5:44 AM 73.0 °F - 72.0 °F 96% 29.94 in 2.0 mi SE 3.5 mph - 0.39 in Rain , Thunderstorm Heavy Rain
5:53 AM 73.0 °F - 72.0 °F 96% 29.94 in 5.0 mi NE 4.6 mph - 0.42 in Rain Light Rain
6:53 AM 73.9 °F - 73.0 °F 97% 29.96 in 10.0 mi South 4.6 mph - 0.00 in Rain Light Rain
7:53 AM 73.0 °F - 70.0 °F 90% 29.96 in 10.0 mi South 6.9 mph - 0.00 in   Overcast
8:53 AM 75.0 °F - 72.0 °F 90% 29.96 in 10.0 mi Calm Calm - 0.00 in   Mostly Cloudy
9:53 AM 79.0 °F - 73.0 °F 82% 29.98 in 10.0 mi WSW 3.5 mph - N/A   Scattered Clouds
10:53 AM 82.9 °F 89.4 °F 73.9 °F 74% 29.97 in 10.0 mi West 6.9 mph - N/A   Clear
11:53 AM 84.0 °F 90.2 °F 73.0 °F 69% 29.98 in 10.0 mi WNW 10.4 mph - N/A   Scattered Clouds
12:53 PM 84.9 °F 92.1 °F 73.9 °F 69% 29.97 in 10.0 mi West 11.5 mph - N/A   Partly Cloudy
1:53 PM 84.9 °F 91.4 °F 73.0 °F 67% 29.94 in 10.0 mi West 6.9 mph - N/A   Scattered Clouds
2:53 PM 86.0 °F 93.0 °F 73.0 °F 65% 29.92 in 10.0 mi NW 9.2 mph - N/A   Partly Cloudy
3:53 PM 87.1 °F 94.5 °F 73.0 °F 63% 29.91 in 10.0 mi WNW 10.4 mph - N/A   Clear
4:53 PM 84.0 °F 89.0 °F 71.1 °F 65% 29.91 in 10.0 mi WNW 10.4 mph - N/A   Partly Cloudy
5:53 PM 82.9 °F 87.5 °F 71.1 °F 67% 29.91 in 10.0 mi NW 9.2 mph - N/A   Clear
6:53 PM 80.1 °F 83.2 °F 70.0 °F 71% 29.92 in 10.0 mi WNW 8.1 mph - N/A   Partly Cloudy
7:53 PM 79.0 °F - 70.0 °F 74% 29.93 in 10.0 mi WNW 9.2 mph - N/A   Scattered Clouds
8:53 PM 77.0 °F - 69.1 °F 76% 29.95 in 10.0 mi NW 8.1 mph - N/A   Partly Cloudy
9:53 PM 75.9 °F - 68.0 °F 76% 29.97 in 10.0 mi NNW 9.2 mph - N/A   Clear
10:53 PM 73.9 °F - 66.0 °F 76% 29.98 in 10.0 mi North 8.1 mph - N/A   Clear
11:53 PM 73.0 °F - 64.9 °F 76% 29.97 in 10.0 mi NNW 6.9 mph - N/A   Clear